| time (UTC) | temp F | wind direction | speed knots | gust knots | rain 1hr in | rain 24hr in | rain mn in | humidity % | barometer mb |
| 20260508220004 | 69 | 260 | 0.0 | 7.0 | 0.00 | 0.00 | 0.00 | 43 | 1009.1 |
| 20260508215603 | 69 | 266 | 0.9 | 7.0 | 0.00 | 0.00 | 0.00 | 44 | 1009.2 |
| 20260508214903 | 70 | 270 | 1.7 | 7.0 | 0.00 | 0.00 | 0.00 | 43 | 1009.1 |
| 20260508214204 | 70 | 264 | 4.3 | 7.0 | 0.00 | 0.00 | 0.00 | 43 | 1009.0 |
| 20260508213717 | 70 | 237 | 0.9 | 6.1 | 0.00 | 0.00 | 0.00 | 41 | 1008.9 |
| 20260508212803 | 70 | 263 | 2.6 | 7.0 | 0.00 | 0.00 | 0.00 | 42 | 1008.9 |
| 20260508212103 | 70 | 264 | 2.6 | 7.0 | 0.00 | 0.00 | 0.00 | 42 | 1008.7 |
| 20260508211404 | 70 | 288 | 0.9 | 7.0 | 0.00 | 0.00 | 0.00 | 41 | 1008.8 |
| 20260508210704 | 69 | 250 | 0.0 | 7.8 | 0.00 | 0.00 | 0.00 | 40 | 1009.0 |
| 20260508210004 | 69 | 250 | 3.5 | 7.8 | 0.00 | 0.00 | 0.00 | 41 | 1009.0 |
| 20260508205603 | 69 | 246 | 1.7 | 7.8 | 0.00 | 0.00 | 0.00 | 41 | 1009.1 |
| 20260508204903 | 68 | 265 | 2.6 | 7.0 | 0.00 | 0.00 | 0.00 | 41 | 1009.1 |
| 20260508204203 | 68 | 249 | 4.3 | 7.0 | 0.00 | 0.00 | 0.00 | 41 | 1009.2 |
| 20260508203503 | 68 | 259 | 2.6 | 7.0 | 0.00 | 0.00 | 0.00 | 40 | 1009.3 |
| 20260508202804 | 68 | 268 | 3.5 | 7.0 | 0.00 | 0.00 | 0.00 | 40 | 1009.4 |
| 20260508202104 | 68 | 273 | 0.9 | 7.0 | 0.00 | 0.00 | 0.00 | 41 | 1009.6 |
| 20260508201403 | 68 | 303 | 3.5 | 5.2 | 0.00 | 0.00 | 0.00 | 39 | 1009.7 |
| 20260508200704 | 68 | 327 | 2.6 | 7.0 | 0.00 | 0.00 | 0.00 | 42 | 1009.9 |
| 20260508200218 | 69 | 275 | 2.6 | 7.0 | 0.00 | 0.00 | 0.00 | 40 | 1009.9 |
| 20260508195604 | 69 | 265 | 0.9 | 7.0 | 0.00 | 0.00 | 0.00 | 39 | 1010.0 |
| 20260508195118 | 69 | 255 | 0.9 | 6.1 | 0.00 | 0.00 | 0.00 | 39 | 1010.2 |
| 20260508194204 | 68 | 274 | 2.6 | 8.7 | 0.00 | 0.00 | 0.00 | 41 | 1010.5 |
| 20260508193503 | 69 | 247 | 2.6 | 7.0 | 0.00 | 0.00 | 0.00 | 39 | 1010.5 |
| 20260508192803 | 67 | 266 | 7.0 | 7.0 | 0.00 | 0.00 | 0.00 | 40 | 1010.7 |
| 20260508192103 | 67 | 281 | 2.6 | 6.1 | 0.00 | 0.00 | 0.00 | 42 | 1010.8 |
| 20260508191619 | 67 | 276 | 3.5 | 6.1 | 0.00 | 0.00 | 0.00 | 42 | 1011.0 |
| 20260508190704 | 67 | 284 | 1.7 | 6.1 | 0.00 | 0.00 | 0.00 | 39 | 1010.8 |
| 20260508190004 | 67 | 315 | 0.9 | 5.2 | 0.00 | 0.00 | 0.00 | 42 | 1010.9 |
| 20260508185604 | 66 | 316 | 2.6 | 8.7 | 0.00 | 0.00 | 0.00 | 44 | 1011.0 |
| 20260508184903 | 67 | 290 | 0.9 | 18.2 | 0.00 | 0.00 | 0.00 | 43 | 1011.0 |
| 20260508184203 | 67 | 267 | 4.3 | 18.2 | 0.00 | 0.00 | 0.00 | 41 | 1011.2 |
| 20260508183503 | 66 | 252 | 1.7 | 5.2 | 0.00 | 0.00 | 0.00 | 42 | 1011.3 |
| 20260508182803 | 65 | 301 | 0.0 | 6.1 | 0.00 | 0.00 | 0.00 | 41 | 1011.7 |
| 20260508182103 | 65 | 342 | 4.3 | 6.1 | 0.00 | 0.00 | 0.00 | 44 | 1011.6 |
| 20260508181403 | 66 | 5 | 1.7 | 3.5 | 0.00 | 0.00 | 0.00 | 42 | 1011.5 |
| 20260508180703 | 66 | 291 | 0.9 | 4.3 | 0.00 | 0.00 | 0.00 | 42 | 1011.6 |
| 20260508180004 | 65 | 190 | 0.9 | 5.2 | 0.00 | 0.00 | 0.00 | 42 | 1011.8 |
| 20260508175817 | 65 | 177 | 2.6 | 5.2 | 0.00 | 0.00 | 0.00 | 42 | 1011.8 |
| 20260508174903 | 65 | 274 | 0.0 | 5.2 | 0.00 | 0.00 | 0.00 | 42 | 1012.1 |
| 20260508174203 | 65 | 197 | 0.0 | 4.3 | 0.00 | 0.00 | 0.00 | 41 | 1012.1 |
| 20260508173503 | 65 | 256 | 1.7 | 4.3 | 0.00 | 0.00 | 0.00 | 42 | 1012.3 |
| 20260508173018 | 63 | 275 | 0.9 | 6.1 | 0.00 | 0.00 | 0.00 | 45 | 1012.5 |
| 20260508172103 | 64 | 146 | 2.6 | 7.8 | 0.00 | 0.00 | 0.00 | 44 | 1012.7 |
| 20260508171403 | 64 | 231 | 1.7 | 5.2 | 0.00 | 0.00 | 0.00 | 46 | 1012.8 |
| 20260508170703 | 64 | 297 | 3.5 | 5.2 | 0.00 | 0.00 | 0.00 | 43 | 1012.9 |
| 20260508170003 | 63 | 301 | 0.9 | 7.0 | 0.00 | 0.00 | 0.00 | 43 | 1013.2 |
| 20260508165817 | 63 | 315 | 2.6 | 7.0 | 0.00 | 0.00 | 0.00 | 42 | 1013.2 |
| 20260508164903 | 63 | 272 | 0.9 | 5.2 | 0.00 | 0.00 | 0.00 | 43 | 1013.4 |
| 20260508164203 | 62 | 159 | 0.9 | 5.2 | 0.00 | 0.00 | 0.00 | 43 | 1013.7 |
| 20260508163503 | 62 | 131 | 0.0 | 6.1 | 0.00 | 0.00 | 0.00 | 42 | 1013.8 |
| 20260508162803 | 62 | 111 | 1.7 | 6.1 | 0.00 | 0.00 | 0.00 | 42 | 1013.8 |
| 20260508162103 | 61 | 136 | 2.6 | 5.2 | 0.00 | 0.00 | 0.00 | 46 | 1014.0 |
| 20260508161403 | 62 | 156 | 0.9 | 5.2 | 0.00 | 0.00 | 0.00 | 46 | 1013.9 |
| 20260508160704 | 62 | 177 | 0.9 | 4.3 | 0.00 | 0.00 | 0.00 | 43 | 1014.0 |
| 20260508160004 | 61 | 98 | 1.7 | 4.3 | 0.00 | 0.00 | 0.00 | 43 | 1014.2 |
| 20260508155604 | 62 | 85 | 0.9 | 6.1 | 0.00 | 0.00 | 0.00 | 44 | 1014.2 |
| 20260508154903 | 62 | 351 | 0.9 | 6.1 | 0.00 | 0.00 | 0.00 | 45 | 1014.3 |
| 20260508154203 | 60 | 262 | 0.0 | 4.3 | 0.00 | 0.00 | 0.00 | 42 | 1014.5 |
| 20260508153503 | 60 | 254 | 3.5 | 4.3 | 0.00 | 0.00 | 0.00 | 42 | 1014.6 |
| 20260508152803 | 59 | 199 | 0.9 | 5.2 | 0.00 | 0.00 | 0.00 | 42 | 1014.7 |
| 20260508152104 | 59 | 153 | 1.7 | 5.2 | 0.00 | 0.00 | 0.00 | 41 | 1014.8 |
| 20260508151403 | 59 | 120 | 2.6 | 5.2 | 0.00 | 0.00 | 0.00 | 41 | 1014.8 |
| 20260508150703 | 58 | 17 | 0.9 | 2.6 | 0.00 | 0.00 | 0.00 | 46 | 1014.8 |
| 20260508150005 | 57 | 15 | 0.0 | 2.6 | 0.00 | 0.00 | 0.00 | 47 | 1015.0 |
| 20260508145604 | 57 | 24 | 0.9 | 2.6 | 0.00 | 0.00 | 0.00 | 52 | 1014.9 |
| 20260508144904 | 56 | 33 | 0.0 | 2.6 | 0.00 | 0.00 | 0.00 | 56 | 1014.7 |
| 20260508144204 | 56 | 72 | 0.9 | 2.6 | 0.00 | 0.00 | 0.00 | 51 | 1014.4 |
| 20260508143718 | 55 | 48 | 1.7 | 2.6 | 0.00 | 0.00 | 0.00 | 50 | 1014.9 |
| 20260508142804 | 54 | 308 | 0.0 | 2.6 | 0.00 | 0.00 | 0.00 | 59 | 1015.3 |
| 20260508142319 | 54 | 320 | 0.9 | 2.6 | 0.00 | 0.00 | 0.00 | 70 | 1015.4 |
| 20260508141404 | 52 | 337 | 1.7 | 2.6 | 0.00 | 0.00 | 0.00 | 78 | 1015.7 |
| 20260508140704 | 51 | 354 | 1.7 | 2.6 | 0.00 | 0.00 | 0.00 | 88 | 1015.7 |
| 20260508140004 | 50 | 326 | 1.7 | 2.6 | 0.00 | 0.00 | 0.00 | 97 | 1015.8 |
| 20260508135604 | 49 | 347 | 1.7 | 2.6 | 0.00 | 0.00 | 0.00 | 99 | 1016.1 |
| 20260508134903 | 49 | 88 | 0.0 | 1.7 | 0.00 | 0.00 | 0.00 | 99 | 1016.3 |
| 20260508134204 | 48 | 106 | 0.0 | 1.7 | 0.00 | 0.00 | 0.00 | 99 | 1016.4 |
| 20260508133504 | 47 | 55 | 0.0 | 1.7 | 0.00 | 0.00 | 0.00 | 99 | 1016.5 |
| 20260508132804 | 47 | 75 | 0.0 | 1.7 | 0.00 | 0.00 | 0.00 | 99 | 1016.5 |
| 20260508132104 | 46 | 74 | 0.9 | 1.7 | 0.00 | 0.00 | 0.00 | 99 | 1016.5 |
| 20260508131404 | 46 | 92 | 0.0 | 1.7 | 0.00 | 0.00 | 0.00 | 99 | 1016.6 |
| 20260508130704 | 46 | 97 | 0.9 | 1.7 | 0.00 | 0.00 | 0.00 | 99 | 1016.7 |
| 20260508130004 | 46 | 41 | 0.0 | 1.7 | 0.00 | 0.00 | 0.00 | 99 | 1016.8 |
| 20260508125604 | 45 | 42 | 0.0 | 1.7 | 0.00 | 0.00 | 0.00 | 99 | 1016.8 |
| 20260508125117 | 45 | 66 | 0.9 | 1.7 | 0.00 | 0.00 | 0.00 | 99 | 1016.6 |
| 20260508124204 | 45 | 71 | 0.9 | 1.7 | 0.00 | 0.00 | 0.00 | 99 | 1016.7 |
| 20260508123718 | 45 | 71 | 0.0 | 1.7 | 0.00 | 0.00 | 0.00 | 99 | 1016.7 |
| 20260508122804 | 44 | 109 | 0.9 | 2.6 | 0.00 | 0.00 | 0.00 | 99 | 1016.4 |
| 20260508122104 | 44 | 36 | 1.7 | 2.6 | 0.00 | 0.00 | 0.00 | 99 | 1016.4 |
| 20260508121404 | 44 | 31 | 0.9 | 2.6 | 0.00 | 0.00 | 0.00 | 99 | 1016.4 |
| 20260508120704 | 44 | 82 | 0.9 | 1.7 | 0.00 | 0.00 | 0.00 | 99 | 1016.3 |
| 20260508120005 | 44 | 63 | 0.0 | 1.7 | 0.00 | 0.00 | 0.00 | 99 | 1016.3 |
| 20260508115604 | 44 | 41 | 1.7 | 2.6 | 0.00 | 0.00 | 0.00 | 99 | 1016.3 |
| 20260508114904 | 43 | 30 | 1.7 | 2.6 | 0.00 | 0.00 | 0.00 | 99 | 1016.2 |
| 20260508114204 | 44 | 36 | 0.9 | 1.7 | 0.00 | 0.00 | 0.00 | 99 | 1016.1 |
| 20260508113504 | 44 | 28 | 0.0 | 1.7 | 0.00 | 0.00 | 0.00 | 99 | 1016.1 |
| 20260508112804 | 44 | 23 | 0.9 | 2.6 | 0.00 | 0.00 | 0.00 | 99 | 1015.9 |
| 20260508112104 | 44 | 25 | 0.9 | 2.6 | 0.00 | 0.00 | 0.00 | 99 | 1015.8 |
| 20260508111404 | 43 | 44 | 0.0 | 1.7 | 0.00 | 0.00 | 0.00 | 99 | 1015.6 |
| 20260508110703 | 43 | 35 | 0.0 | 1.7 | 0.00 | 0.00 | 0.00 | 99 | 1015.7 |
| 20260508110004 | 43 | 35 | 0.0 | 1.7 | 0.00 | 0.00 | 0.00 | 99 | 1015.6 |
| 20260508105604 | 43 | 47 | 0.0 | 1.7 | 0.00 | 0.00 | 0.00 | 99 | 1015.6 |
| 20260508104904 | 43 | 36 | 0.9 | 1.7 | 0.00 | 0.00 | 0.00 | 99 | 1015.5 |
| 20260508104204 | 43 | 30 | 0.9 | 1.7 | 0.00 | 0.00 | 0.00 | 99 | 1015.6 |
| 20260508103504 | 44 | 20 | 0.9 | 1.7 | 0.00 | 0.00 | 0.00 | 99 | 1015.5 |
| 20260508102804 | 44 | 21 | 0.9 | 1.7 | 0.00 | 0.00 | 0.00 | 99 | 1015.5 |
| 20260508102104 | 44 | 35 | 0.0 | 1.7 | 0.00 | 0.00 | 0.00 | 99 | 1015.3 |
| 20260508101617 | 44 | 50 | 0.9 | 1.7 | 0.00 | 0.00 | 0.00 | 99 | 1015.2 |
| 20260508100918 | 44 | 68 | 0.0 | 1.7 | 0.00 | 0.00 | 0.00 | 99 | 1015.1 |
| 20260508100004 | 44 | 79 | 0.0 | 1.7 | 0.00 | 0.01 | 0.00 | 99 | 1014.9 |
| 20260508095604 | 44 | 50 | 0.0 | 1.7 | 0.00 | 0.01 | 0.00 | 99 | 1014.9 |
| 20260508094904 | 44 | 51 | 0.9 | 1.7 | 0.00 | 0.01 | 0.00 | 99 | 1014.9 |
| 20260508094204 | 44 | 47 | 0.9 | 1.7 | 0.00 | 0.01 | 0.00 | 99 | 1014.8 |
| 20260508093504 | 45 | 16 | 0.0 | 2.6 | 0.00 | 0.01 | 0.00 | 99 | 1014.8 |
| 20260508092804 | 45 | 11 | 0.9 | 2.6 | 0.00 | 0.01 | 0.00 | 99 | 1014.8 |
| 20260508092104 | 45 | 25 | 0.9 | 2.6 | 0.00 | 0.01 | 0.00 | 99 | 1014.8 |
| 20260508091619 | 46 | 43 | 0.9 | 1.7 | 0.00 | 0.01 | 0.00 | 99 | 1014.8 |
| 20260508090704 | 46 | 21 | 0.0 | 1.7 | 0.00 | 0.01 | 0.00 | 99 | 1014.8 |
| 20260508090004 | 46 | 30 | 0.0 | 1.7 | 0.00 | 0.02 | 0.00 | 99 | 1014.6 |
| 20260508085603 | 47 | 33 | 1.7 | 1.7 | 0.00 | 0.03 | 0.00 | 99 | 1014.6 |
| 20260508084904 | 47 | 32 | 1.7 | 1.7 | 0.00 | 0.04 | 0.00 | 99 | 1014.5 |
| 20260508084204 | 47 | 26 | 0.0 | 1.7 | 0.00 | 0.04 | 0.00 | 99 | 1014.6 |
| 20260508083504 | 47 | 38 | 1.7 | 1.7 | 0.00 | 0.04 | 0.00 | 99 | 1014.4 |
| 20260508082804 | 47 | 28 | 0.9 | 1.7 | 0.00 | 0.04 | 0.00 | 99 | 1014.5 |
| 20260508082104 | 47 | 20 | 1.7 | 1.7 | 0.00 | 0.04 | 0.00 | 99 | 1014.6 |
| 20260508081404 | 47 | 29 | 0.0 | 1.7 | 0.00 | 0.04 | 0.00 | 99 | 1014.6 |
| 20260508080704 | 47 | 26 | 1.7 | 1.7 | 0.00 | 0.05 | 0.00 | 99 | 1014.5 |
| 20260508080004 | 47 | 25 | 0.0 | 1.7 | 0.00 | 0.05 | 0.00 | 99 | 1014.6 |
| 20260508075604 | 47 | 23 | 0.0 | 1.7 | 0.00 | 0.05 | 0.00 | 99 | 1014.6 |
| 20260508074904 | 47 | 11 | 0.9 | 1.7 | 0.00 | 0.05 | 0.00 | 99 | 1014.4 |
| 20260508074204 | 48 | 6 | 0.0 | 1.7 | 0.00 | 0.05 | 0.00 | 99 | 1014.3 |
| 20260508073504 | 48 | 20 | 0.0 | 1.7 | 0.00 | 0.05 | 0.00 | 99 | 1014.4 |
| 20260508072804 | 48 | 23 | 0.9 | 1.7 | 0.00 | 0.05 | 0.00 | 99 | 1014.3 |
| 20260508072104 | 48 | 27 | 0.0 | 1.7 | 0.00 | 0.05 | 0.00 | 99 | 1014.4 |
| 20260508071404 | 48 | 29 | 1.7 | 1.7 | 0.00 | 0.05 | 0.00 | 99 | 1014.2 |
| 20260508070919 | 49 | 26 | 0.9 | 2.6 | 0.00 | 0.05 | 0.00 | 99 | 1014.3 |
| 20260508070004 | 49 | 22 | 1.7 | 2.6 | 0.00 | 0.05 | 0.00 | 99 | 1014.4 |
| 20260508065604 | 49 | 20 | 0.0 | 3.5 | 0.00 | 0.05 | 0.00 | 99 | 1014.3 |
| 20260508064904 | 49 | 23 | 0.9 | 3.5 | 0.00 | 0.05 | 0.00 | 99 | 1014.3 |
| 20260508064204 | 49 | 33 | 0.0 | 2.6 | 0.00 | 0.05 | 0.00 | 99 | 1014.2 |
| 20260508063717 | 49 | 42 | 1.7 | 2.6 | 0.00 | 0.05 | 0.00 | 99 | 1014.3 |
| 20260508063018 | 49 | 40 | 1.7 | 2.6 | 0.00 | 0.05 | 0.00 | 99 | 1014.2 |
| 20260508062318 | 50 | 30 | 1.7 | 2.6 | 0.00 | 0.05 | 0.00 | 99 | 1014.3 |
| 20260508061404 | 50 | 22 | 0.0 | 2.6 | 0.00 | 0.05 | 0.00 | 99 | 1014.3 |
| 20260508060704 | 50 | 21 | 0.0 | 2.6 | 0.00 | 0.05 | 0.00 | 99 | 1014.3 |
| 20260508060004 | 50 | 29 | 0.9 | 2.6 | 0.00 | 0.05 | 0.00 | 99 | 1014.2 |
| 20260508055604 | 50 | 28 | 1.7 | 2.6 | 0.00 | 0.05 | 0.00 | 99 | 1014.3 |
| 20260508054904 | 50 | 11 | 0.9 | 1.7 | 0.00 | 0.06 | 0.00 | 99 | 1014.4 |
| 20260508054204 | 50 | 13 | 0.9 | 0.9 | 0.00 | 0.07 | 0.00 | 99 | 1014.4 |
| 20260508053504 | 50 | 34 | 0.0 | 1.7 | 0.00 | 0.08 | 0.00 | 99 | 1014.4 |
| 20260508052804 | 50 | 24 | 0.9 | 1.7 | 0.00 | 0.08 | 0.00 | 99 | 1014.2 |
| 20260508052104 | 50 | 8 | 0.0 | 0.9 | 0.00 | 0.08 | 0.00 | 99 | 1014.0 |
| 20260508051404 | 50 | 5 | 0.9 | 1.7 | 0.00 | 0.08 | 0.00 | 99 | 1014.2 |
| 20260508050704 | 50 | 4 | 0.0 | 1.7 | 0.00 | 0.08 | 0.00 | 99 | 1014.2 |
| 20260508050218 | 50 | 2 | 0.9 | 1.7 | 0.00 | 0.08 | 0.00 | 99 | 1014.2 |
| 20260508045604 | 50 | 4 | 0.0 | 1.7 | 0.00 | 0.08 | 0.00 | 99 | 1014.0 |
| 20260508044904 | 50 | 358 | 0.9 | 1.7 | 0.00 | 0.08 | 0.00 | 99 | 1014.0 |
| 20260508044204 | 50 | 17 | 0.9 | 1.7 | 0.00 | 0.08 | 0.00 | 99 | 1014.0 |
| 20260508043504 | 50 | 26 | 0.9 | 1.7 | 0.00 | 0.08 | 0.00 | 99 | 1013.9 |
| 20260508042804 | 50 | 10 | 0.9 | 1.7 | 0.00 | 0.08 | 0.00 | 99 | 1013.9 |
| 20260508042319 | 50 | 4 | 0.9 | 1.7 | 0.00 | 0.08 | 0.00 | 99 | 1013.7 |
| 20260508041404 | 50 | 3 | 0.0 | 1.7 | 0.00 | 0.08 | 0.00 | 99 | 1013.8 |
| 20260508040704 | 50 | 14 | 1.7 | 1.7 | 0.00 | 0.08 | 0.00 | 99 | 1013.7 |
| 20260508040007 | 50 | 20 | 0.0 | 1.7 | 0.00 | 0.08 | 0.00 | 99 | 1013.7 |
| 20260508035604 | 50 | 33 | 1.7 | 1.7 | 0.00 | 0.08 | 0.08 | 99 | 1013.7 |
| 20260508034904 | 50 | 33 | 0.9 | 1.7 | 0.00 | 0.08 | 0.08 | 99 | 1013.7 |
| 20260508034418 | 50 | 25 | 1.7 | 1.7 | 0.00 | 0.08 | 0.08 | 99 | 1013.6 |
| 20260508033504 | 50 | 29 | 0.0 | 1.7 | 0.00 | 0.09 | 0.08 | 99 | 1013.4 |
| 20260508032804 | 50 | 17 | 0.9 | 1.7 | 0.00 | 0.09 | 0.08 | 99 | 1013.5 |
| 20260508032104 | 50 | 8 | 0.9 | 1.7 | 0.00 | 0.09 | 0.08 | 99 | 1013.5 |
| 20260508031404 | 50 | 12 | 1.7 | 1.7 | 0.00 | 0.09 | 0.08 | 99 | 1013.7 |
| 20260508030704 | 50 | 15 | 0.0 | 1.7 | 0.00 | 0.09 | 0.08 | 99 | 1013.8 |
| 20260508030004 | 50 | 15 | 0.0 | 1.7 | 0.00 | 0.09 | 0.08 | 99 | 1013.7 |
| 20260508025604 | 50 | 20 | 0.0 | 1.7 | 0.00 | 0.09 | 0.08 | 99 | 1013.7 |
| 20260508024904 | 50 | 31 | 0.0 | 1.7 | 0.00 | 0.09 | 0.08 | 99 | 1013.5 |
| 20260508024418 | 51 | 16 | 0.0 | 1.7 | 0.00 | 0.09 | 0.08 | 99 | 1013.4 |
| 20260508023504 | 51 | 359 | 0.9 | 1.7 | 0.00 | 0.09 | 0.08 | 99 | 1013.3 |
| 20260508022804 | 51 | 5 | 0.0 | 1.7 | 0.00 | 0.09 | 0.08 | 99 | 1013.2 |
| 20260508022104 | 51 | 7 | 0.0 | 2.6 | 0.00 | 0.09 | 0.08 | 99 | 1013.0 |
| 20260508021404 | 51 | 9 | 0.0 | 2.6 | 0.00 | 0.09 | 0.08 | 99 | 1012.9 |
| 20260508020704 | 51 | 12 | 0.9 | 1.7 | 0.00 | 0.09 | 0.08 | 98 | 1013.1 |
| 20260508020004 | 51 | 15 | 0.9 | 1.7 | 0.00 | 0.09 | 0.08 | 98 | 1013.0 |
| 20260508015604 | 51 | 11 | 0.9 | 1.7 | 0.00 | 0.09 | 0.08 | 98 | 1012.8 |
| 20260508015117 | 51 | 1 | 0.9 | 1.7 | 0.00 | 0.09 | 0.08 | 98 | 1012.8 |
| 20260508014418 | 51 | 358 | 0.9 | 1.7 | 0.00 | 0.09 | 0.08 | 98 | 1012.6 |
| 20260508013504 | 51 | 18 | 0.0 | 1.7 | 0.00 | 0.10 | 0.08 | 97 | 1012.5 |
| 20260508012804 | 51 | 32 | 0.0 | 1.7 | 0.00 | 0.12 | 0.08 | 96 | 1012.4 |
| 20260508012318 | 51 | 30 | 0.0 | 1.7 | 0.00 | 0.13 | 0.08 | 96 | 1012.4 |
| 20260508011404 | 52 | 17 | 0.0 | 1.7 | 0.00 | 0.15 | 0.08 | 96 | 1012.3 |
| 20260508010704 | 52 | 13 | 0.0 | 2.6 | 0.00 | 0.17 | 0.08 | 95 | 1012.2 |
| 20260508010004 | 52 | 15 | 0.9 | 3.5 | 0.00 | 0.18 | 0.08 | 95 | 1012.0 |
| 20260508005604 | 53 | 17 | 0.9 | 3.5 | 0.00 | 0.18 | 0.08 | 95 | 1012.0 |
| 20260508004904 | 53 | 27 | 1.7 | 2.6 | 0.00 | 0.18 | 0.08 | 94 | 1011.9 |
| 20260508004204 | 53 | 37 | 0.9 | 1.7 | 0.00 | 0.20 | 0.08 | 93 | 1011.8 |
| 20260508003504 | 53 | 31 | 1.7 | 1.7 | 0.00 | 0.24 | 0.08 | 92 | 1011.7 |
| 20260508002804 | 54 | 31 | 0.0 | 1.7 | 0.00 | 0.26 | 0.08 | 91 | 1011.6 |
| 20260508002104 | 54 | 36 | 1.7 | 3.5 | 0.00 | 0.26 | 0.08 | 91 | 1011.5 |
| 20260508001405 | 55 | 43 | 0.9 | 3.5 | 0.00 | 0.26 | 0.08 | 89 | 1011.3 |
| 20260508000704 | 55 | 48 | 1.7 | 2.6 | 0.00 | 0.26 | 0.08 | 88 | 1011.3 |
| 20260508000004 | 55 | 48 | 0.9 | 2.6 | 0.00 | 0.26 | 0.08 | 87 | 1011.3 |
| 20260507235818 | 55 | 42 | 0.0 | 2.6 | 0.00 | 0.26 | 0.08 | 87 | 1011.3 |
| 20260507235119 | 55 | 69 | 0.0 | 2.6 | 0.00 | 0.26 | 0.08 | 87 | 1011.5 |
| 20260507234204 | 56 | 105 | 0.9 | 3.5 | 0.00 | 0.26 | 0.08 | 86 | 1011.4 |
| 20260507233504 | 56 | 106 | 2.6 | 3.5 | 0.00 | 0.26 | 0.08 | 86 | 1011.4 |
| 20260507232804 | 56 | 102 | 0.9 | 3.5 | 0.00 | 0.26 | 0.08 | 84 | 1011.4 |
| 20260507232104 | 56 | 91 | 1.7 | 3.5 | 0.00 | 0.26 | 0.08 | 85 | 1011.2 |
| 20260507231404 | 56 | 65 | 0.9 | 1.7 | 0.00 | 0.27 | 0.08 | 85 | 1011.2 |
| 20260507230704 | 57 | 91 | 1.7 | 2.6 | 0.00 | 0.27 | 0.08 | 85 | 1011.4 |
| 20260507230004 | 56 | 91 | 0.9 | 2.6 | 0.00 | 0.28 | 0.08 | 86 | 1011.5 |
| 20260507225604 | 56 | 88 | 0.9 | 2.6 | 0.00 | 0.29 | 0.08 | 86 | 1011.4 |
| 20260507224904 | 56 | 94 | 1.7 | 3.5 | 0.00 | 0.30 | 0.08 | 85 | 1011.4 |
| 20260507224418 | 56 | 90 | 1.7 | 3.5 | 0.00 | 0.30 | 0.08 | 85 | 1011.4 |
| 20260507223504 | 56 | 350 | 0.9 | 2.6 | 0.00 | 0.30 | 0.08 | 84 | 1011.5 |
| 20260507222803 | 56 | 107 | 0.0 | 4.3 | 0.00 | 0.31 | 0.08 | 85 | 1011.5 |
| 20260507222103 | 56 | 105 | 2.6 | 4.3 | 0.00 | 0.31 | 0.08 | 85 | 1011.5 |
| 20260507221404 | 55 | 116 | 1.7 | 3.5 | 0.00 | 0.31 | 0.08 | 86 | 1011.4 |
| 20260507220704 | 55 | 126 | 1.7 | 5.2 | 0.00 | 0.31 | 0.08 | 86 | 1011.3 |